CAPE
105 125 105 208 411 714 937 1331 1784 1755 2012 2028 1060 1315 1271 1289 1465 1483 1692 1133 1302 1532 1632 1757 1585 1888 1391 1215 1169 1320 1142 1124 1235 1159 982 950 1133 1201 1248 1156 1045 1208 1331
342 129 640 916 1265 1361 1243 1405 1598 1784 1856 1704 1644 1501 1074 1457 1825 1483 1578 1657 1469 1632 1517 1612 1661 1725 1792 1444 1258 1316 1268 1395 1338 1369 1386 1391 1249 1073 984 1002 1097 1156 758
1775 1995 1277 1340 1252 1646 2089 1801 1789 1408 1259 1211 1475 1417 1282 1316 1314 1398 1735 1498 1567 1318 1396 2120 1728 1885 1991 1944 1932 1747 1762 1778 1690 1746 1710 1460 1293 1267 1263 1234 1055 1150 1053
2235 2290 1504 1198 1700 1878 1580 1452 1054 972 1077 994 1187 1369 1280 1180 1535 1832 1685 1656 1566 1439 682 1410 1736 1802 1863 1778 1686 1839 1863 1768 2010 1841 1707 1385 1471 1327 1258 1243 1192 1414 1467
1978 1931 1356 1466 1919 1265 1098 1192 1467 1299 1068 837 781 746 987 1160 1400 1374 1728 1705 1715 1336 1396 1419 1408 1889 1974 1836 1965 2140 2245 2038 2046 2239 1890 1499 1536 1499 1330 1361 1343 1330 1511
1864 1895 1403 1689 1750 1414 1077 808 1608 1213 1357 1211 652 753 674 789 1411 1422 1581 1419 1701 1650 1457 1614 1783 1359 1792 1633 1727 1827 1926 2050 2089 2102 1900 1832 1767 1337 1346 1376 1462 1324 1374
1684 1942 1085 1515 1751 1606 1737 1156 1340 1051 802 1162 1307 666 801 926 1167 1245 1397 1363 1392 1217 1405 1559 1643 1422 1476 1348 1624 1526 1451 1600 1749 1773 1818 2071 1618 1338 1411 1577 1347 1204 1315
1217 1607 1558 1030 1520 1134 1844 1538 1828 1096 945 1375 1341 828 640 1215 1021 1111 1425 1382 1498 1319 1410 1213 1607 1740 1439 1197 1742 1509 1522 1649 1514 1594 1583 1762 1490 1414 1399 1662 1585 1168 1158
671 1589 1705 1602 1597 1997 1065 1564 1567 1675 491 916 2075 1429 941 828 537 920 1181 1138 1168 1171 1307 1389 1167 1378 1728 1280 1140 1270 1515 1469 1917 1635 1558 1816 1752 1480 1203 1397 1439 1204 1056
635 701 1701 1890 1893 1265 1588 1608 1284 1599 1275 658 990 853 1652 1692 939 451 700 816 786 846 1188 1142 1148 1508 1181 1508 436 924 1227 1475 1738 1962 1895 1979 1842 1341 973 1131 1310 1243 1008
625 408 1389 1784 1630 1792 1709 1982 1832 2104 1417 1151 841 870 1018 1040 1211 1134 594 396 121 435 865 955 951 1073 1656 1681 877 1001 951 764 1070 1691 2231 2326 2212 1466 925 982 1044 1053 900
822 595 790 1770 1730 1492 1682 1394 2035 2074 1451 1518 1299 1403 521 391 448 364 111 286 185 35 77 643 1108 1310 1747 1671 1151 116 80 478 796 1142 1426 1806 2071 2023 1211 1001 1115 1169 1073
514 387 1077 1544 1682 2226 1734 1883 2337 1833 1741 1703 1947 1147 648 571 563 543 551 241 413 705 498 139 778 1431 1415 1916 1698 740 450 251 468 814 1069 900 1248 1658 1941 1764 1704 1482 1320
657 706 1346 1495 1618 1868 1877 1958 1856 1906 1306 1800 1852 1890 871 799 775 819 738 1010 905 1063 1035 440 486 1310 1550 1607 1352 1058 1290 663 436 436 139 673 791 750 1138 1479 1609 1761 1821
1094 1144 1499 1692 1774 1730 1775 1771 1631 1480 1844 2227 1714 1783 1919 1050 989 937 885 1057 1312 976 1066 1742 758 1409 1254 1143 1472 1465 1895 1635 1300 838 456 208 419 643 595 863 942 913 1071
1214 1418 1843 1859 1806 1885 1945 2144 1466 1811 2564 4080 1541 1740 2076 1182 1212 1268 1138 1373 1451 1163 1066 930 1266 974 1417 1506 1396 1503 1602 1831 1599 1163 730 434 288 217 309 556 811 820 693
1397 1594 1969 1917 1888 1881 1732 1785 1872 1756 2219 2827 2596 1974 2065 2091 1360 1399 1643 1305 1775 2035 1350 1118 954 1060 1800 2256 1945 1918 1868 1851 1649 1183 839 631 492 290 558 618 605 809 659
1263 1592 1741 1845 1831 1915 1913 1791 1804 1690 2076 2552 2133 2182 1985 1735 2024 1873 1611 1812 2138 2978 1631 1992 1724 1233 1982 1668 2116 2402 2084 1259 1193 1075 1425 1127 788 522 517 426 419 576 720
1664 1071 1300 1894 1823 1800 2013 2110 1896 1957 2195 2511 2479 2350 2145 2014 2155 1659 1778 1502 1286 1547 2005 1748 1381 1091 1068 1248 1961 2426 2467 2197 1401 862 1104 1018 861 792 674 530 447 252 603
2047 1776 1581 1627 1732 1945 1950 1912 1718 2554 2708 2457 2420 2406 2380 2347 2350 2363 2087 2042 2170 1772 1949 1391 1243 1003 1150 1849 3486 3040 1889 2073 1474 896 780 825 961 791 623 621 559 389 278
2186 2123 1972 1759 1767 1922 1768 1696 1909 2550 2721 2495 2441 2509 2494 2193 1724 1788 1857 2514 2756 2118 1756 1469 1245 1197 1272 2448 2751 2058 1763 1401 3480 1644 1337 1717 1664 1355 1122 353 318 404 234
2398 2270 2105 1998 1903 1744 1118 647 1009 2107 2372 2340 2459 2411 2303 1737 1418 1164 984 770 861 2466 2500 3123 2427 2762 2967 3153 2698 2360 2491 2368 1942 1510 2709 1390 1463 914 1037 945 395 217 274
2627 2498 2340 2132 2282 2457 1381 876 615 1160 1363 1865 1980 2076 1867 1502 1392 1927 1515 596 139 301 336 419 877 1261 1498 1687 1589 1372 1256 1918 2155 1477 2052 1013 1528 969 481 312 0 63 217
2859 2601 2432 2540 2540 2477 1734 1544 1192 1703 1563 1562 1660 1783 2404 2544 1810 906 335 295 190 100 6 2 11 59 81 85 70 95 137 228 242 327 855 281 173 294 53 3 1 0 134
3130 2783 2490 2455 2573 2645 1755 1418 1240 1558 1231 1502 2035 2367 1960 1060 523 503 564 381 50 0 0 1 46 54 39 4 0 0 0 0 0 0 16 39 38 15 47 39 19 36 17
3314 3036 2977 2840 2388 2744 1993 1599 1260 1417 1729 2177 1987 1301 814 882 805 560 374 210 29 6 0 0 0 17 14 0 0 0 0 0 3 12 25 59 17 32 42 54 24 14 35
CIN
-13 -15 -36 -15 -11 -1 -2 -8 0 -1 0 -2 -22 -12 -12 -26 -16 0 -17 -109 -96 -67 -40 -14 -8 0 -10 -11 -8 -2 -3 -4 -4 -1 -2 0 0 -1 -2 0 0 0 0
-4 -23 0 0 0 0 0 0 -2 -5 0 0 0 -29 -17 -7 -16 -27 -5 -32 -83 -56 -41 -20 -6 0 0 -6 -7 0 0 0 0 0 0 0 0 -1 -1 0 0 0 -4
0 0 0 0 0 -2 -10 -1 -5 -2 0 0 0 0 0 -28 -72 -62 -19 0 -32 -90 -62 -9 -9 -4 -2 0 0 0 0 -1 0 0 0 0 0 0 0 0 -1 0 0
0 0 0 0 -1 -1 0 0 0 0 0 0 0 0 0 0 -10 -7 0 -1 0 -2 -128 -56 -29 -13 -9 -8 -2 0 -1 -5 -1 0 0 0 0 -1 0 0 0 0 0
0 0 0 0 -2 0 0 0 0 -1 0 0 0 0 -1 -2 -4 0 -8 -6 -14 -2 0 -48 -70 -38 -22 -14 -5 -1 -1 -4 -4 -1 -1 -1 0 0 0 0 0 0 0
0 0 0 0 -1 0 0 0 -6 0 -1 0 0 0 -3 -5 -5 0 -1 -1 -2 -5 -7 -18 -7 -29 -50 -44 -30 -22 -11 -2 -2 -3 -3 0 0 0 0 0 0 0 0
0 -1 0 -1 0 -1 -2 -6 0 0 0 0 0 0 0 0 0 0 0 0 0 0 -13 -16 -8 0 -15 -79 -59 -52 -41 -20 -10 -6 -3 0 0 0 0 0 0 0 0
-1 0 0 0 0 0 -1 -3 -1 0 0 0 0 0 0 0 0 0 0 0 -2 -6 -14 -30 -29 -26 -19 -2 -19 -68 -56 -32 -21 -16 -14 -4 -3 0 0 0 0 -1 0
-9 0 0 0 0 -1 0 -3 -2 -4 0 0 -2 -1 0 -1 0 0 0 0 -5 0 -4 -12 -31 -41 -31 -18 -49 -47 -75 -69 -25 -17 -14 -7 -4 -4 -6 -1 0 -2 -3
-14 -3 0 0 0 0 0 0 0 0 -4 -2 0 0 -3 -4 0 0 0 0 0 0 -3 -1 -3 -29 -42 -28 -114 -53 -109 -80 -48 -21 -12 -3 -5 -14 -25 -10 -2 -2 -4
-17 -11 0 0 0 0 -1 0 0 0 0 0 0 0 0 0 0 0 0 0 -2 0 0 0 0 -2 -21 -30 -39 -74 -161 -162 -113 -46 -11 -2 -1 -14 -29 -19 -10 -6 -7
-2 -11 0 0 0 0 0 0 0 0 -4 0 0 0 0 0 0 0 -2 0 0 -16 -20 0 0 0 -1 -14 -50 -65 -138 -222 -170 -110 -67 -26 -8 -2 -21 -20 -11 -4 -2
0 -2 0 0 0 0 0 0 0 0 0 0 0 0 0 0 0 0 0 -1 0 0 0 -14 0 0 0 -3 -8 -60 -81 -263 -139 -114 -90 -93 -53 -18 -3 -2 0 0 0
-1 0 0 0 0 0 0 0 0 0 0 0 0 0 0 0 0 0 0 0 0 0 0 -13 0 0 0 0 -62 -130 -54 -85 -63 -81 -60 -148 -110 -114 -60 -19 -5 -1 -1
0 0 0 0 0 0 0 0 0 0 0 0 0 0 0 0 0 0 0 0 0 0 -1 -1 0 -2 0 0 -27 -5 0 -18 -54 -117 -66 -63 -144 -118 -115 -79 -53 -43 -18
0 0 0 0 0 0 0 0 0 0 0 0 0 -1 0 0 0 0 0 0 0 0 0 0 -1 0 0 0 -17 -2 -1 -18 -48 -104 -131 -67 -73 -90 -82 -108 -62 -46 -50
0 0 0 0 0 0 0 0 0 0 0 -1 -2 0 0 0 0 0 0 0 0 -1 0 0 0 0 0 0 0 0 0 0 -4 -35 -56 -52 -45 -28 -98 -97 -91 -53 -42
0 0 0 0 0 0 0 0 0 0 0 0 0 0 0 0 0 0 0 0 0 0 0 0 0 0 0 -1 0 0 0 0 0 -16 -26 -66 -63 -53 -95 -128 -102 -79 -49
0 -1 0 0 0 0 0 0 -4 -3 0 0 0 0 0 0 0 0 0 0 0 0 -1 0 0 0 0 0 0 0 0 0 0 -28 -57 -103 -127 -75 -52 -52 -51 -74 -50
0 0 0 0 0 0 0 0 -1 0 0 0 0 0 0 0 0 0 0 0 0 0 0 0 0 0 0 -1 -1 0 0 0 0 0 -12 -23 -47 -77 -108 -91 -64 -44 -77
0 0 0 0 0 0 0 -2 0 0 0 0 0 0 0 -4 -5 -6 0 0 0 0 0 0 0 0 0 0 0 -7 -1 0 -2 0 0 -1 0 -2 -14 -78 -100 -74 -66
-8 -1 0 -3 -7 -6 -29 -67 -45 0 0 0 0 0 0 -7 -15 -48 -55 -63 -35 0 0 0 0 0 0 0 0 -2 0 0 0 -2 -2 0 -1 0 0 -4 -49 -67 -41
-16 -12 -9 -13 -9 -1 -54 -82 -95 -28 -2 0 0 0 0 0 -6 0 -2 -71 -86 -63 -40 -18 -1 0 0 0 0 0 -3 0 0 0 -7 0 -5 0 -3 -7 0 -33 -20
-22 -20 -14 -10 -9 -12 -50 -61 -67 -25 -9 -6 -5 -1 0 0 0 -30 -55 -21 -25 -73 0 0 -1 -6 -32 -37 -36 -58 -70 -61 -6 -34 0 -1 -1 -45 -63 -1 -6 0 -6
-17 -27 -31 -23 -17 -20 -76 -104 -97 -35 -50 -26 -1 0 -4 -38 -59 -24 -2 -5 -30 0 0 -3 0 -2 -13 -26 0 0 0 0 0 0 0 0 -16 -4 -1 -3 -20 -13 -7
-13 -12 -16 -31 -65 -38 -91 -129 -140 -78 -28 -5 -18 -48 -58 -19 -19 -11 -3 -2 -31 0 0 0 -22 -4 -10 0 0 0 0 0 0 0 0 0 -1 0 0 0 0 -11 0
Wind_Speed
9 8 5 11 13 14 16 17 18 12 13 18 18 16 15 18 20 21 15 25 26 23 24 24 23 21 19 18 15 14 14 14 14 14 14 16 15 14 14 14 15 13 11
9 6 5 9 12 13 12 16 12 13 15 17 17 14 12 14 17 13 16 22 27 25 22 22 23 23 21 19 17 16 14 15 14 13 14 14 14 14 15 15 14 14 11
7 13 6 5 6 8 13 13 13 11 12 13 10 14 17 12 12 15 18 18 19 25 25 26 26 24 21 20 20 21 18 16 15 14 12 12 12 11 11 10 10 10 9
11 8 4 1 2 4 5 7 9 10 9 11 9 11 10 12 9 14 14 15 15 15 20 23 23 24 22 23 22 21 20 17 16 14 14 13 14 12 11 9 9 10 12
10 12 7 5 4 2 3 8 5 7 7 8 10 8 7 9 7 7 8 9 7 13 10 16 19 20 22 24 23 21 20 17 16 15 15 14 14 11 11 10 10 11 11
12 11 9 8 5 3 1 4 7 6 7 6 9 4 4 5 6 5 5 8 6 8 9 9 13 16 18 15 16 17 19 20 18 17 15 13 12 11 10 9 8 9 9
11 14 11 9 7 5 8 2 4 3 6 4 9 4 3 5 9 6 5 5 6 6 2 6 7 6 11 13 15 14 14 16 16 17 17 16 16 15 12 9 8 7 7
13 14 14 12 11 7 6 7 5 5 1 4 5 4 2 8 6 5 4 4 1 4 6 8 7 3 4 6 7 8 10 11 13 13 14 14 16 16 15 12 9 8 7
15 15 15 15 12 10 8 5 4 6 8 5 5 1 1 4 4 8 7 6 2 3 3 8 11 6 5 5 5 11 11 9 8 11 12 13 13 12 12 12 11 11 10
16 15 14 13 12 11 13 8 7 10 6 6 7 11 6 7 6 8 12 8 1 2 4 4 5 8 6 7 9 5 9 8 8 10 12 13 11 11 11 10 10 9 8
16 12 12 11 11 10 12 13 12 10 12 10 10 12 11 8 10 6 4 8 4 6 6 4 5 3 8 5 7 8 11 8 6 7 8 11 11 10 10 9 8 8 7
18 10 8 10 10 11 13 10 12 10 9 10 9 10 11 11 10 9 7 6 5 nan nan 7 8 8 8 8 6 12 nan 8 7 7 8 9 9 10 10 9 9 8 8
14 10 8 11 13 13 12 9 10 9 7 5 9 7 10 9 11 11 10 8 10 10 10 9 12 12 13 12 11 10 15 11 10 10 9 8 8 9 10 9 9 10 10
6 7 9 9 10 12 10 8 8 10 10 9 8 9 7 8 9 10 11 12 11 13 14 10 15 15 15 15 20 18 11 17 14 13 15 16 15 17 17 12 12 10 11
8 9 7 6 7 8 8 9 9 12 9 10 10 8 9 8 10 10 12 12 14 12 17 21 14 22 14 15 20 12 14 23 21 18 15 16 15 16 16 15 17 17 15
7 13 9 9 10 11 10 9 8 10 11 13 10 10 8 9 9 11 12 15 16 14 14 12 15 16 17 15 21 17 15 22 22 21 20 19 17 16 16 18 20 21 21
13 10 11 10 10 10 10 10 7 7 7 6 5 5 7 6 8 12 12 13 14 17 12 17 17 16 17 15 14 15 15 16 18 25 21 19 18 18 20 20 22 23 24
9 10 9 7 7 5 6 6 3 3 3 2 1 2 4 8 9 9 10 10 12 16 13 11 17 15 13 15 14 15 17 17 19 30 26 24 20 20 23 24 24 23 27
10 8 6 5 3 1 2 2 2 3 2 2 2 5 5 5 9 8 9 10 12 16 19 14 15 18 17 17 16 19 20 19 20 37 31 26 25 24 23 24 26 26 25
10 8 6 6 5 4 2 2 2 1 2 4 3 3 4 5 7 8 9 9 11 12 14 15 15 19 20 22 27 22 19 23 23 23 29 29 31 28 25 24 23 26 29
7 6 5 5 6 5 2 4 3 1 2 2 3 5 7 7 8 9 9 13 13 13 16 16 18 21 23 25 26 22 19 19 24 22 21 27 26 28 30 30 22 24 28
6 5 4 5 4 1 3 4 1 1 2 1 3 5 5 8 11 13 19 17 16 17 19 22 22 21 23 26 25 23 24 23 19 23 25 22 29 25 28 25 32 32 31
7 8 8 6 3 1 6 9 9 2 4 4 5 6 6 8 19 16 29 31 26 28 29 26 26 28 29 30 28 27 25 22 24 23 31 19 30 24 30 29 nan nan 33
7 8 8 7 4 4 10 12 11 4 4 5 6 6 8 12 16 22 22 23 23 28 nan nan nan nan nan nan nan nan 27 24 21 22 23 19 25 27 nan nan nan nan 36
11 9 9 9 6 5 13 15 16 9 8 9 10 12 14 16 31 34 25 25 nan nan nan nan nan nan nan nan nan nan nan nan nan nan nan nan nan nan nan nan nan nan nan
15 13 11 9 8 7 17 22 22 17 15 17 19 17 29 22 37 35 24 23 nan nan nan nan nan nan nan nan nan nan nan nan nan nan nan nan nan nan nan nan nan nan nan
Wind_Direction
126 121 112 84 90 79 88 80 66 68 55 55 66 75 59 68 67 58 65 32 46 53 58 56 58 54 49 58 67 69 76 76 75 80 83 82 80 90 93 91 97 97 99
133 143 117 77 78 84 91 92 106 76 70 74 59 72 74 75 44 60 54 45 49 52 56 53 53 53 54 52 55 62 67 70 72 71 76 83 93 95 96 90 93 93 88
142 151 148 83 81 93 95 84 83 69 81 81 71 53 61 63 41 56 56 64 36 47 52 50 49 48 48 50 54 53 56 61 66 68 71 72 79 84 82 90 102 90 97
160 152 168 174 173 92 98 100 99 85 83 91 82 71 64 47 68 43 52 62 60 39 44 45 43 46 46 44 50 55 57 53 55 64 73 73 76 69 68 73 81 81 90
177 163 188 222 136 181 164 131 115 99 81 105 91 61 59 63 77 31 33 40 21 56 45 20 32 38 45 46 46 50 53 49 45 50 59 61 73 75 66 68 72 80 88
184 183 213 207 165 169 171 162 134 138 105 115 120 115 96 43 17 6 358 21 340 1 20 45 32 26 35 52 55 44 47 52 51 44 43 48 49 51 60 69 72 80 80
194 196 193 219 195 166 197 192 120 146 120 144 88 26 23 31 359 5 18 19 348 35 45 13 41 54 12 32 47 51 45 48 49 47 42 40 42 40 38 43 53 65 75
184 201 197 214 214 206 227 211 196 160 279 228 158 84 5 325 323 290 295 327 282 11 12 5 27 73 70 57 332 27 53 54 51 38 32 37 42 44 46 44 39 41 44
190 199 209 201 223 200 235 247 243 209 214 263 251 205 90 292 315 317 300 291 328 337 360 10 28 34 33 91 11 7 15 30 27 25 21 18 26 35 42 39 41 42 42
202 201 211 213 216 217 220 236 239 198 206 244 286 276 256 237 234 307 322 303 38 261 263 358 356 14 20 12 314 247 324 353 15 24 21 17 13 17 21 29 23 25 38
199 205 222 220 221 226 246 221 238 222 242 214 247 255 267 292 295 269 255 289 295 297 281 247 257 304 332 4 344 323 332 347 11 9 8 8 10 13 17 16 18 18 21
215 208 221 239 232 236 241 249 259 258 233 244 236 241 241 265 278 284 286 287 266 nan nan 288 273 275 285 315 323 288 nan 330 340 355 359 3 2 2 9 9 6 5 3
195 246 256 255 261 259 250 251 272 247 260 236 265 237 260 269 270 266 272 282 287 278 272 278 284 278 284 283 290 308 318 324 329 323 331 337 352 348 340 339 343 341 341
240 266 274 261 254 253 266 274 270 268 271 265 275 269 255 279 267 266 266 261 265 290 288 284 289 300 295 288 275 300 303 319 315 318 318 319 322 329 324 323 327 321 323
257 285 299 268 260 275 274 265 278 272 261 274 276 298 298 264 274 274 279 275 272 272 287 291 278 283 285 278 279 284 297 306 314 313 306 305 301 307 320 315 316 316 316
256 278 278 285 279 277 271 274 262 284 276 273 285 302 287 266 266 280 273 284 287 287 286 277 289 278 272 276 292 294 296 294 313 311 308 305 304 308 304 305 307 304 303
281 271 278 283 285 283 272 263 242 234 277 274 271 260 307 305 275 271 282 282 286 287 294 304 294 291 297 287 279 287 293 310 304 322 320 314 310 307 302 302 301 304 301
305 292 296 296 286 274 249 245 214 196 262 246 179 293 277 268 283 267 269 284 281 280 291 294 288 290 302 295 294 292 300 306 306 315 321 319 317 311 308 305 303 303 301
323 326 329 320 308 319 234 238 199 187 187 241 234 272 284 290 291 282 278 265 284 299 303 296 282 290 286 286 287 302 301 306 306 302 310 314 318 317 312 308 308 305 301
336 337 346 1 14 19 18 3 351 16 325 296 302 290 291 297 290 291 298 293 294 286 284 285 280 279 287 285 282 276 289 306 304 303 297 292 300 308 313 304 302 302 304
334 342 358 25 26 29 341 11 31 358 304 334 308 297 305 303 291 285 294 295 285 293 289 280 279 277 281 279 299 286 286 281 272 291 298 297 301 307 307 310 302 310 307
337 320 311 325 353 280 298 291 232 346 17 225 236 255 271 305 308 308 317 311 291 304 317 298 269 267 263 258 268 264 273 278 288 295 298 298 306 305 300 303 296 298 308
335 319 307 307 310 308 256 282 299 324 203 226 238 239 252 285 287 289 308 310 309 318 308 299 281 280 271 261 261 266 265 277 287 286 292 294 295 300 288 291 nan nan 303
305 304 304 294 285 270 278 289 286 294 260 249 255 259 285 283 284 297 311 308 311 318 nan nan nan nan nan nan nan nan 267 260 275 285 290 303 295 287 nan nan nan nan 299
278 282 284 299 288 277 285 296 293 287 280 278 276 274 280 289 289 292 307 310 nan nan nan nan nan nan nan nan nan nan nan nan nan nan nan nan nan nan nan nan nan nan nan
279 271 281 275 271 282 292 301 299 286 290 280 270 277 285 280 289 294 302 309 nan nan nan nan nan nan nan nan nan nan nan nan nan nan nan nan nan nan nan nan nan nan nan